logo
Search for airport 
image banner adimage banner adimage banner ad
image banner ad

EHLQ - L13-Fc-1 (Oil Platform)

Located in , Netherlands

ICAO - , IATA -

Data provided by Airmate  

General information

Coordinates: N53°17'0" E4°12'30"
Elevation is feet MSL.
 
View others Airports in Noord-Holland

Operational data

Special qualification required
Current time UTC:
Current local time:
Weather at : EHKV - K14-Fa-1C (Oil Platform) ( 39 km )
METAR: EHKV 301755Z AUTO 31019KT 9999 FEW003 SCT015 BKN021 13/12 Q1007
View NOTAMs / SUP AIP / TFR affecting this airport [VIEW]
Communications frequencies: [VIEW]

Runways:

Airport contact information

Address: Netherlands

Satellite view of EHLQ